TimeCST,TemperatureF,Dew PointF,Humidity,Sea Level PressureIn,VisibilityMPH,Wind Direction,Wind SpeedMPH,Gust SpeedMPH,PrecipitationIn,Events,Conditions,WindDirDegrees,DateUTC
12:15 AM,51.6,32.0,47,30.33,10.0,ESE,3.5,-,N/A,,Clear,110,2012-11-18 06:15:00
12:35 AM,51.1,32.0,48,30.33,10.0,Calm,Calm,-,N/A,,Clear,0,2012-11-18 06:35:00
12:55 AM,50.9,32.4,49,30.33,10.0,Calm,Calm,-,N/A,,Clear,0,2012-11-18 06:55:00
1:15 AM,50.0,32.5,51,30.33,10.0,Calm,Calm,-,N/A,,Clear,0,2012-11-18 07:15:00
1:35 AM,49.1,32.9,54,30.33,10.0,Calm,Calm,-,N/A,,Clear,0,2012-11-18 07:35:00
1:55 AM,48.2,32.9,55,30.32,10.0,Calm,Calm,-,N/A,,Clear,0,2012-11-18 07:55:00
2:15 AM,47.7,32.9,57,30.32,10.0,Calm,Calm,-,N/A,,Clear,0,2012-11-18 08:15:00
2:55 AM,47.7,32.2,55,30.32,10.0,Calm,Calm,-,N/A,,Clear,0,2012-11-18 08:55:00
3:15 AM,47.5,32.0,55,30.33,10.0,Calm,Calm,-,N/A,,Clear,0,2012-11-18 09:15:00
3:35 AM,46.4,32.2,58,30.32,10.0,Calm,Calm,-,N/A,,Clear,0,2012-11-18 09:35:00
3:55 AM,45.7,32.0,59,30.31,10.0,Calm,Calm,-,N/A,,Clear,0,2012-11-18 09:55:00
4:15 AM,47.7,31.1,53,30.31,10.0,Calm,Calm,-,N/A,,Clear,0,2012-11-18 10:15:00
4:35 AM,46.6,31.8,56,30.32,10.0,Calm,Calm,-,N/A,,Clear,0,2012-11-18 10:35:00
4:55 AM,43.2,32.0,65,30.32,10.0,Calm,Calm,-,N/A,,Clear,0,2012-11-18 10:55:00
5:15 AM,44.2,32.0,62,30.32,10.0,Calm,Calm,-,N/A,,Clear,0,2012-11-18 11:15:00
5:35 AM,45.3,31.6,59,30.31,10.0,Calm,Calm,-,N/A,,Clear,0,2012-11-18 11:35:00
5:55 AM,45.1,32.2,60,30.32,10.0,Calm,Calm,-,N/A,,Clear,0,2012-11-18 11:55:00
6:15 AM,44.4,32.7,64,30.32,10.0,Calm,Calm,-,N/A,,Clear,0,2012-11-18 12:15:00
6:35 AM,43.2,32.5,66,30.32,10.0,SE,3.5,-,N/A,,Clear,140,2012-11-18 12:35:00
6:55 AM,45.9,32.4,59,30.32,10.0,Calm,Calm,-,N/A,,Clear,0,2012-11-18 12:55:00
7:15 AM,46.6,32.7,59,30.32,10.0,Calm,Calm,-,N/A,,Clear,0,2012-11-18 13:15:00
7:35 AM,47.8,33.6,58,30.33,10.0,Calm,Calm,-,N/A,,Clear,0,2012-11-18 13:35:00
7:55 AM,47.5,34.7,61,30.34,10.0,Calm,Calm,-,N/A,,Clear,0,2012-11-18 13:55:00
8:15 AM,49.1,36.1,61,30.34,10.0,Calm,Calm,-,N/A,,Clear,0,2012-11-18 14:15:00
8:35 AM,51.3,36.7,57,30.35,10.0,Calm,Calm,-,N/A,,Clear,0,2012-11-18 14:35:00
8:55 AM,52.9,37.4,56,30.35,10.0,SSE,4.6,-,N/A,,Clear,160,2012-11-18 14:55:00
9:15 AM,52.2,37.2,57,30.35,10.0,South,4.6,-,N/A,,Clear,170,2012-11-18 15:15:00
9:35 AM,52.7,38.3,58,30.35,10.0,South,4.6,-,N/A,,Clear,170,2012-11-18 15:35:00
9:55 AM,54.0,38.3,55,30.36,10.0,South,5.8,-,N/A,,Clear,170,2012-11-18 15:55:00
10:15 AM,56.1,37.4,49,30.35,10.0,SSE,5.8,-,N/A,,Clear,160,2012-11-18 16:15:00
10:35 AM,57.0,37.8,49,30.36,10.0,SSE,5.8,-,N/A,,Clear,160,2012-11-18 16:35:00
10:55 AM,58.8,36.0,42,30.36,10.0,South,6.9,-,N/A,,Clear,170,2012-11-18 16:55:00
11:15 AM,60.3,36.5,41,30.35,10.0,SSE,6.9,-,N/A,,Clear,160,2012-11-18 17:15:00
11:35 AM,61.7,36.1,39,30.33,10.0,South,3.5,-,N/A,,Clear,180,2012-11-18 17:35:00
11:55 AM,63.1,34.7,35,30.33,10.0,South,8.1,-,N/A,,Clear,170,2012-11-18 17:55:00
12:15 PM,63.0,32.9,32,30.31,10.0,SE,3.5,-,N/A,,Clear,140,2012-11-18 18:15:00
12:35 PM,63.9,33.1,32,30.30,10.0,SE,5.8,-,N/A,,Clear,130,2012-11-18 18:35:00
12:55 PM,64.9,33.6,31,30.31,10.0,SSE,4.6,-,N/A,,Clear,150,2012-11-18 18:55:00
1:15 PM,65.5,33.3,30,30.29,10.0,SSW,3.5,-,N/A,,Clear,200,2012-11-18 19:15:00
1:55 PM,66.6,33.8,30,30.28,10.0,SE,4.6,-,N/A,,Clear,140,2012-11-18 19:55:00
2:15 PM,66.4,32.2,28,30.27,10.0,Calm,Calm,-,N/A,,Clear,0,2012-11-18 20:15:00
2:35 PM,67.5,32.5,27,30.26,10.0,ESE,4.6,-,N/A,,Clear,120,2012-11-18 20:35:00
2:55 PM,67.5,31.8,27,30.26,10.0,SE,4.6,-,N/A,,Clear,140,2012-11-18 20:55:00
3:15 PM,67.1,31.1,26,30.25,10.0,SSE,4.6,-,N/A,,Clear,150,2012-11-18 21:15:00
3:35 PM,67.3,30.2,25,30.25,10.0,SSE,3.5,-,N/A,,Clear,150,2012-11-18 21:35:00
3:55 PM,67.1,33.8,29,30.24,10.0,East,4.6,-,N/A,,Clear,100,2012-11-18 21:55:00
4:15 PM,66.2,35.2,32,30.25,10.0,ESE,3.5,-,N/A,,Clear,110,2012-11-18 22:15:00
4:55 PM,64.0,35.2,34,30.26,10.0,East,3.5,-,N/A,,Clear,100,2012-11-18 22:55:00
5:15 PM,62.1,35.6,37,30.26,10.0,Calm,Calm,-,N/A,,Clear,0,2012-11-18 23:15:00
5:35 PM,59.5,37.4,44,30.26,10.0,Calm,Calm,-,N/A,,Clear,0,2012-11-18 23:35:00
5:55 PM,59.7,34.9,39,30.26,10.0,ESE,3.5,-,N/A,,Clear,110,2012-11-18 23:55:00
6:15 PM,59.2,34.3,39,30.26,10.0,Calm,Calm,-,N/A,,Clear,0,2012-11-19 00:15:00
6:55 PM,58.5,34.7,41,30.28,10.0,Calm,Calm,-,N/A,,Clear,0,2012-11-19 00:55:00
7:15 PM,58.1,34.9,42,30.28,10.0,SE,3.5,-,N/A,,Clear,140,2012-11-19 01:15:00
7:35 PM,57.7,35.6,44,30.27,10.0,SE,3.5,-,N/A,,Clear,130,2012-11-19 01:35:00
7:55 PM,57.2,36.1,45,30.28,10.0,SE,3.5,-,N/A,,Clear,140,2012-11-19 01:55:00
8:15 PM,56.3,36.9,48,30.29,10.0,South,3.5,-,N/A,,Clear,170,2012-11-19 02:15:00
8:35 PM,55.9,36.0,47,30.28,10.0,SE,3.5,-,N/A,,Clear,140,2012-11-19 02:35:00
8:55 PM,55.2,36.1,49,30.29,10.0,Calm,Calm,-,N/A,,Clear,0,2012-11-19 02:55:00
9:15 PM,53.1,36.7,54,30.29,10.0,Calm,Calm,-,N/A,,Clear,0,2012-11-19 03:15:00
9:35 PM,54.1,36.7,52,30.29,10.0,SE,3.5,-,N/A,,Clear,130,2012-11-19 03:35:00
9:55 PM,55.4,36.5,49,30.29,10.0,SE,3.5,-,N/A,,Clear,140,2012-11-19 03:55:00
10:15 PM,56.1,36.5,48,30.28,10.0,SE,4.6,-,N/A,,Clear,130,2012-11-19 04:15:00
10:35 PM,55.9,36.5,48,30.28,10.0,SE,3.5,-,N/A,,Clear,130,2012-11-19 04:35:00
10:55 PM,55.6,36.1,48,30.27,10.0,SE,4.6,-,N/A,,Clear,130,2012-11-19 04:55:00
11:15 PM,55.4,36.1,48,30.27,10.0,SSE,4.6,-,N/A,,Clear,150,2012-11-19 05:15:00
11:55 PM,54.1,36.3,51,30.27,10.0,SSE,4.6,-,N/A,,Clear,150,2012-11-19 05:55:00